| time (UTC) | temp F | wind direction | speed knots | gust knots | rain 1hr in | rain 24hr in | rain mn in | humidity % | barometer mb |
| 20260506103002 | 50 | 210 | 5.2 | 9.6 | 0.00 | 0.00 | 0.00 | 88 | 1011.7 |
| 20260506101600 | 49 | 238 | 6.1 | 9.6 | 0.00 | 0.00 | 0.00 | 88 | 1011.5 |
| 20260506100105 | 49 | 216 | 5.2 | 9.6 | 0.00 | 0.00 | 0.00 | 89 | 1011.6 |
| 20260506094612 | 49 | 213 | 6.1 | 10.4 | 0.00 | 0.00 | 0.00 | 88 | 1011.5 |
| 20260506093052 | 49 | 240 | 5.2 | 10.4 | 0.00 | 0.00 | 0.00 | 88 | 1011.3 |
| 20260506091550 | 49 | 239 | 5.2 | 10.4 | 0.00 | 0.00 | 0.00 | 88 | 1011.3 |
| 20260506090047 | 49 | 196 | 5.2 | 11.3 | 0.00 | 0.00 | 0.00 | 88 | 1011.5 |
| 20260506084551 | 49 | 190 | 6.1 | 10.4 | 0.00 | 0.00 | 0.00 | 87 | 1011.3 |
| 20260506083048 | 49 | 209 | 6.1 | 10.4 | 0.00 | 0.00 | 0.00 | 87 | 1011.3 |
| 20260506081544 | 49 | 230 | 5.2 | 9.6 | 0.00 | 0.00 | 0.00 | 87 | 1011.4 |
| 20260506073042 | 50 | 206 | 4.3 | 11.3 | 0.00 | 0.00 | 0.00 | 85 | 1011.0 |
| 20260506071537 | 50 | 217 | 4.3 | 9.6 | 0.00 | 0.00 | 0.00 | 85 | 1011.0 |
| 20260506061534 | 49 | 228 | 5.2 | 9.6 | 0.00 | 0.00 | 0.00 | 85 | 1010.7 |
| 20260506044535 | 50 | 233 | 6.1 | 11.3 | 0.00 | 0.00 | 0.00 | 84 | 1011.0 |
| 20260506043023 | 50 | 215 | 4.3 | 13.9 | 0.00 | 0.00 | 0.00 | 84 | 1010.9 |
| 20260506041517 | 50 | 232 | 5.2 | 10.4 | 0.00 | 0.00 | 0.00 | 84 | 1010.7 |
| 20260506040115 | 50 | 221 | 4.3 | 8.7 | 0.00 | 0.00 | 0.00 | 84 | 1010.6 |
| 20260506034513 | 51 | 197 | 5.2 | 11.3 | 0.00 | 0.00 | 0.00 | 84 | 1010.8 |
| 20260506033014 | 51 | 200 | 7.0 | 14.8 | 0.00 | 0.00 | 0.00 | 84 | 1010.6 |
| 20260506031513 | 51 | 221 | 3.5 | 7.8 | 0.00 | 0.00 | 0.00 | 84 | 1010.5 |
| 20260506030015 | 50 | 209 | 7.0 | 10.4 | 0.00 | 0.00 | 0.00 | 84 | 1010.7 |
| 20260506024517 | 51 | 202 | 3.5 | 9.6 | 0.00 | 0.00 | 0.00 | 83 | 1010.7 |
| 20260506023017 | 51 | 207 | 4.3 | 7.8 | 0.00 | 0.00 | 0.00 | 82 | 1010.6 |
| 20260506021510 | 52 | 196 | 4.3 | 7.8 | 0.00 | 0.00 | 0.00 | 81 | 1010.7 |
| 20260506020009 | 54 | 186 | 3.5 | 7.8 | 0.00 | 0.00 | 0.00 | 78 | 1010.8 |
| 20260506014513 | 54 | 238 | 2.6 | 8.7 | 0.00 | 0.00 | 0.00 | 78 | 1011.0 |
| 20260506013009 | 54 | 208 | 4.3 | 7.8 | 0.00 | 0.00 | 0.00 | 78 | 1010.8 |
| 20260506011525 | 54 | 213 | 2.6 | 6.1 | 0.00 | 0.00 | 0.00 | 78 | 1010.4 |
| 20260506010009 | 56 | 184 | 2.6 | 7.8 | 0.00 | 0.00 | 0.00 | 75 | 1010.5 |
| 20260506004516 | 56 | 244 | 2.6 | 8.7 | 0.00 | 0.00 | 0.00 | 74 | 1010.4 |
| 20260506003008 | 56 | 211 | 3.5 | 8.7 | 0.00 | 0.00 | 0.00 | 74 | 1010.3 |
| 20260506001606 | 57 | 229 | 2.6 | 9.6 | 0.00 | 0.00 | 0.00 | 72 | 1009.9 |
| 20260506000005 | 60 | 215 | 4.3 | 11.3 | 0.00 | 0.00 | 0.00 | 69 | 1009.4 |
| 20260505234504 | 61 | 207 | 6.1 | 13.0 | 0.00 | 0.00 | 0.00 | 66 | 1009.3 |
| 20260505233002 | 62 | 244 | 5.2 | 16.5 | 0.00 | 0.00 | 0.00 | 67 | 1009.2 |
| 20260505231559 | 56 | 227 | 10.4 | 17.4 | 0.00 | 0.00 | 0.00 | 77 | 1008.7 |
| 20260505230101 | 53 | 244 | 8.7 | 18.2 | 0.00 | 0.00 | 0.00 | 79 | 1007.7 |
| 20260505224558 | 54 | 221 | 8.7 | 20.0 | 0.00 | 0.00 | 0.00 | 79 | 1007.2 |
| 20260505223100 | 54 | 223 | 9.6 | 20.9 | 0.00 | 0.00 | 0.00 | 78 | 1007.0 |
| 20260505221605 | 55 | 240 | 10.4 | 23.5 | 0.00 | 0.00 | 0.00 | 78 | 1006.9 |
| 20260505220107 | 55 | 214 | 11.3 | 17.4 | 0.00 | 0.00 | 0.00 | 78 | 1006.7 |
| 20260505214600 | 55 | 223 | 10.4 | 18.2 | 0.00 | 0.00 | 0.00 | 78 | 1006.7 |
| 20260505213055 | 54 | 260 | 10.4 | 19.1 | 0.00 | 0.00 | 0.00 | 78 | 1006.5 |
| 20260505211554 | 55 | 204 | 9.6 | 19.1 | 0.00 | 0.00 | 0.00 | 78 | 1006.4 |
| 20260505210054 | 56 | 281 | 11.3 | 18.2 | 0.00 | 0.00 | 0.00 | 76 | 1006.6 |
| 20260505204558 | 57 | 217 | 10.4 | 21.7 | 0.00 | 0.00 | 0.00 | 75 | 1006.5 |
| 20260505203051 | 57 | 220 | 10.4 | 19.1 | 0.00 | 0.00 | 0.00 | 75 | 1006.6 |
| 20260505201551 | 57 | 193 | 10.4 | 18.2 | 0.00 | 0.00 | 0.00 | 75 | 1006.7 |
| 20260505200048 | 58 | 186 | 7.8 | 18.2 | 0.00 | 0.00 | 0.00 | 75 | 1006.9 |
| 20260505194556 | 57 | 232 | 8.7 | 16.5 | 0.00 | 0.00 | 0.00 | 77 | 1006.9 |
| 20260505193044 | 56 | 215 | 7.8 | 18.2 | 0.00 | 0.00 | 0.00 | 77 | 1007.4 |
| 20260505191541 | 57 | 223 | 8.7 | 19.1 | 0.00 | 0.00 | 0.00 | 77 | 1007.6 |
| 20260505190042 | 56 | 290 | 8.7 | 19.1 | 0.00 | 0.00 | 0.00 | 78 | 1008.0 |
| 20260505184538 | 56 | 215 | 8.7 | 18.2 | 0.00 | 0.00 | 0.00 | 76 | 1008.0 |
| 20260505183047 | 57 | 256 | 5.2 | 16.5 | 0.00 | 0.00 | 0.00 | 76 | 1008.0 |
| 20260505181537 | 57 | 187 | 7.0 | 15.6 | 0.00 | 0.00 | 0.00 | 76 | 1008.0 |
| 20260505180035 | 56 | 201 | 6.1 | 15.6 | 0.00 | 0.00 | 0.00 | 78 | 1008.1 |
| 20260505174533 | 57 | 186 | 7.0 | 19.1 | 0.00 | 0.00 | 0.00 | 75 | 1008.4 |
| 20260505173032 | 56 | 213 | 4.3 | 10.4 | 0.00 | 0.00 | 0.00 | 77 | 1008.7 |
| 20260505171528 | 57 | 227 | 7.0 | 12.2 | 0.00 | 0.00 | 0.00 | 75 | 1009.0 |
| 20260505170030 | 56 | 248 | 6.1 | 13.0 | 0.00 | 0.00 | 0.00 | 78 | 1009.7 |
| 20260505164531 | 55 | 205 | 7.0 | 12.2 | 0.00 | 0.00 | 0.00 | 77 | 1009.6 |
| 20260505163024 | 57 | 229 | 2.6 | 9.6 | 0.00 | 0.00 | 0.00 | 76 | 1009.9 |
| 20260505161519 | 56 | 153 | 5.2 | 13.0 | 0.00 | 0.00 | 0.00 | 77 | 1010.0 |
| 20260505153014 | 55 | 207 | 7.0 | 13.0 | 0.00 | 0.00 | 0.00 | 78 | 1010.8 |
| 20260505151511 | 54 | 184 | 7.0 | 12.2 | 0.00 | 0.00 | 0.00 | 80 | 1010.7 |
| 20260505124601 | 52 | 250 | 7.0 | 15.6 | 0.00 | 0.00 | 0.00 | 81 | 1010.6 |
| 20260505123056 | 52 | 229 | 7.0 | 13.0 | 0.00 | 0.00 | 0.00 | 82 | 1010.6 |
| 20260505121550 | 52 | 199 | 4.3 | 9.6 | 0.00 | 0.00 | 0.00 | 82 | 1010.6 |
| 20260505120100 | 51 | 202 | 5.2 | 10.4 | 0.00 | 0.00 | 0.00 | 82 | 1010.8 |
| 20260505114545 | 51 | 229 | 5.2 | 13.9 | 0.00 | 0.00 | 0.00 | 83 | 1011.1 |
| 20260505113101 | 50 | 206 | 7.8 | 13.0 | 0.00 | 0.00 | 0.00 | 83 | 1011.2 |
| 20260505111543 | 50 | 225 | 7.0 | 12.2 | 0.00 | 0.00 | 0.00 | 83 | 1011.2 |